This demonstration page uses our WeatherBlox Daily Observations layout. Learn more.

Left ArrowRight Arrow

30.00354, -91.81873

Hourly Observations for July 2, 2022

Temp ( °F °C ) Dew Point ( °F °C ) Humidity (%) Winds ( mph kmh ) Pressure ( in mb ) Visibility ( mi km ) Precip ( " mm )
12:53 am 00:53 Clear 75 23.9 73 22.8 94 94 ESE 3 6 29.98 1015 10 16 0.00 0.00
1:53 am 01:53 Partly Cloudy 77 25 74 23.3 90 90 ESE 5 7 29.97 1015 10 16 0.00 0.00
2:53 am 02:53 Mostly Clear 77 25 74 23.3 90 90 SE 6 9 29.97 1015 10 16 0.00 0.00
3:53 am 03:53 Clear 76 24.4 74 23.3 94 94 SE 3 6 29.97 1015 10 16 0.00 0.00
4:53 am 04:53 Mostly Cloudy 76 24.4 74 23.3 94 94 SW 3 6 29.96 1015 10 16 0.00 0.00
5:53 am 05:53 Mostly Clear 76 24.4 74 23.3 94 94 Calm 29.98 1015 10 16 0.00 0.00
6:53 am 06:53 Sunny with Light Rain 77 25 75 23.9 94 94 Calm 29.99 1016 10 16 0.00 0.00
7:53 am 07:53 Partly Cloudy 79 26.1 76 24.4 90 90 SE 3 6 30.01 1016 10 16 0.00 0.00
8:53 am 08:53 Sunny 83 28.3 78 25.6 85 85 S 3 6 30.01 1016 10 16 0.00 0.00
9:53 am 09:53 Sunny 84 28.9 77 25 80 80 S 5 7 30.02 1017 10 16 0.00 0.00
10:53 am 10:53 Sunny 87 30.6 76 24.4 70 70 SSW 7 11 30.01 1016 10 16 0.00 0.00
11:21 am 11:21 Partly Cloudy with Nearby Thunderstorms 88 31.1 75 23.9 66 66 SSW 9 15 30.01 1016 10 16 0.00 0.00
11:43 am 11:43 Partly Cloudy 80 26.7 71 21.7 74 74 WSW 13 20 30.02 1017 10 16 0.00 0.00
11:53 am 11:53 Mostly Cloudy with Light Rain 79 26.1 73 22.8 82 82 W 8 13 30.01 1016 7 11 0.01 0.25
12:00 pm 12:00 Mostly Cloudy with Nearby Thunderstorms 80 26.7 73 22.8 79 79 WSW 7 11 30.01 1016 10 16 0.00 0.00
12:21 pm 12:21 Partly Cloudy 81 27.2 73 22.8 77 77 W 9 15 30.02 1017 10 16 0.00 0.00
12:53 pm 12:53 Mostly Cloudy 83 28.3 74 23.3 74 74 Calm 30.01 1016 10 16 0.00 0.00
1:53 pm 13:53 Partly Cloudy with Light Rain 86 30 76 24.4 72 72 Calm 29.99 1016 10 16 0.00 0.00
2:02 pm 14:02 Mostly Cloudy with Heavy Rain 81 27.2 74 23.3 79 79 W 8 13 29.99 1015 2 2 0.08 2.03
2:23 pm 14:23 Cloudy with Heavy Rain 81 27.2 76 24.4 85 85 S 10 17 30.00 1016 1 1 0.44 11.18
2:30 pm 14:30 Cloudy with Rain 81 27.2 76 24.4 85 85 ESE 12 19 29.99 1015 2 3 0.46 11.68
2:38 pm 14:38 Mostly Cloudy with Light Rain 82 27.8 76 24.4 82 82 ESE 8 13 29.99 1015 10 16 0.46 11.68
2:53 pm 14:53 Mostly Cloudy with Nearby Thunderstorms 81 27.2 76 24.4 85 85 E 10 17 29.99 1016 10 16 0.46 11.68
3:07 pm 15:07 Partly Cloudy with Thunderstorms 81 27.2 76 24.4 85 85 E 12 19 29.98 1015 10 16 0.00 0.00
3:35 pm 15:35 Mostly Cloudy with Thunderstorms 80 26.7 74 23.3 82 82 NNE 6 9 29.99 1015 3 5 0.04 1.02
3:48 pm 15:48 Cloudy with Light Rain 81 27 75 24 84 84 NNE 8 13 29.98 1015 10 16 0.04 1.02
3:53 pm 15:53 Mostly Cloudy with Light Rain 82 27.8 76 24.4 82 82 NNE 7 11 29.98 1015 10 16 0.04 1.02
4:03 pm 16:03 Partly Cloudy 83 28.3 76 24.4 79 79 NE 8 13 29.98 1015 10 16 0.00 0.00
4:53 pm 16:53 Sunny 87 30.6 76 24.4 70 70 NE 3 6 29.97 1015 10 16 0.00 0.00
5:53 pm 17:53 Sunny 86 30 77 25 75 75 ESE 6 9 29.97 1015 10 16 0.00 0.00
6:53 pm 18:53 Sunny 84 28.9 76 24.4 77 77 SE 7 11 29.96 1015 10 16 0.00 0.00
7:53 pm 19:53 Sunny 82 27.8 77 25 85 85 ESE 5 7 29.96 1015 10 16 0.00 0.00
8:53 pm 20:53 Clear 80 26.7 77 25 90 90 SE 5 7 29.96 1015 10 16 0.00 0.00
9:53 pm 21:53 Clear 80 26.7 77 25 90 90 SE 3 6 29.97 1015 10 16 0.00 0.00
10:53 pm 22:53 Clear 79 26.1 76 24.4 90 90 ESE 3 6 29.99 1016 10 16 0.00 0.00
11:53 pm 23:53 Partly Cloudy 79 26.1 76 24.4 90 90 ESE 5 7 30.00 1016 10 16 0.00 0.00

Powered by AerisWeather